OPS 7613 (P/L 5) DEB

Satellite information

Favourite Embed

Satellite Type and Status

DEBRISIN ORBIT

Key statistics

Satellite OPS 7613 (P/L 5) DEB at a glance.

Uptime

20427

Days in orbit

Revolutions

≈ 14.0

Per day

Orbit

LEO

Low Earth Orbit

Inclination

70.0

Latest

Satellite identification and parameters

Extended collection of information and parameters for OPS 7613 (P/L 5) DEB.

Object identification

Identified? True

Debris? True

Object name: OPS 7613 (P/L 5) DEB

International designator: 1969-082LJ

Object number (NORAD): 43191

Object ID (CCSDS): 43191

Country: UNITED STATES OF AMERICA (US)

Current information (Y/N): Y

RCS size: SMALL

Orbital parameters

Period: 103.129 minutes

Inclination: 70.0177 deg

SMA: 7284.741 km

Apoapsis: 920.113 km

Periapsis: 893.098 km

RAAN: 355.4787 deg

Eccentricy: 0.00185426

Argument of periapsis: 149.5735 deg

Mean anomaly: 210.6451 deg

Mean motion: 13.96309267 rev/day

Mean motion (dot): 0.00000258 rev/day2

B* drag term: 0.00022492867 1/REarth

Two-line elements (TLE)

Creation date: Sept. 3, 2025, 2:21 a.m.

Reference frame: TEME

Reference center: EARTH

Epoch: Sept. 2, 2025, 5:52 p.m. UTC

TLE line 0: 0 OPS 7613 (P/L 5) DEB

TLE line 1: 1 43191U 69082LJ 25245.74449997 .00000258 00000-0 22493-3 0 9992

TLE line 2: 2 43191 70.0177 355.4787 0018543 149.5735 210.6451 13.96309267408520

Live tracking on map

Real-time ground track for satellite OPS 7613 (P/L 5) DEB.

In-orbit conjunctions

A list of the most updated potential collisions computed for object OPS 7613 (P/L 5) DEB.

Target Orbit TCA Probability of collision Miss distance Type
DELTA 1 DEB SSO 2025-02-22 07:18:52 0.0001231254 345.0 (m) DEBRIS
SURCAL 159 LEO 2024-10-11 23:24:32 0.0009390417 48.0 (m) PAYLOAD

Associated space launch

Poppy was the follow-on ELINT system, which succeeded the Grab ELINT satellite system.

OPS 7613 (P/L 5) DEB was lifted into orbit during the mission ‘Thorad SLV-2G Agena D | Poppy 8A,B,C,D’, on board a Thorad SLV-2G Agena D space rocket.

The launch took place on Sept. 30, 1969, 1:40 p.m. from Space Launch Complex 1W.

For more information about the launch, click the button.

Launch to space Thorad SLV-2G Agena D | Poppy 8A,B,C,D
Thorad SLV-2G Agena D | Poppy 8A,B,C,D

Agency: N/A

Status: Launch Successful

Launch date: Sept. 30, 1969, 1:40 p.m. UTC

Rocket: Thorad SLV-2G Agena D

Launch pad: Space Launch Complex 1W

Location: Vandenberg SFB, CA, USA

...

Latest news about this satellite

There are no fresh news available about this satellite. Check back as we update our databases every day.


Newsletter sign-up

Weekly statistics, charts and insights to help you stay on top of the space industry.